Location: San Antonio
(29.4240°N, 98.4930°W)
Time: 10:44:37
(UTC-05:00)

Envisat - Pass Details

Date: 19 June 2024
Orbit: 762 x 764 km, 98.3° (Epoch: 12 July)

Event Time Altitude Azimuth Distance (km) Brightness Sun altitude
Rises 04:37:37 0° 13° (NNE) 3,226 7.2 -21.4°
Reaches altitude 10° 04:39:56 10° 15° (NNE) 2,297 6.3 -21.0°
Maximum altitude 04:45:00 80° 101° (ESE) 776 3.0 -20.2°
Enters shadow 04:47:29 31° 186° (S) 1,315 3.8 -19.8°
